METEOSAT-10 (MSG-3)

Last updated on Tue Sep 22 2026 00:02:53 GMT+0000 (Coordinated Universal Time)

1 38552U 12035B 26264.56039767 -.00000007 00000+0 00000+0 0 9993 2 38552 4.8945 60.4716 0000946 106.8971 34.8866 1.00272851 51827
UTC large
Height (km)
Speed (km/s)
/
Latitude / Longitude
Inclination (degrees)
Orbital Period (minutes)
Azimuth
Elevation
Range (km)
Doppler Factor

Next 0 passes for location: London (51.5072 / 0.1276)

No passes found over London.
METEOSAT-10 (MSG-3)